Location: El Recuerdo
(3.6589°N, 75.6172°W)
Time: 21:27:54
(UTC+00:00)

Meteor 1-5 Rocket - Pass Details

Date: 19 March 2026
Orbit: 787 x 914 km, 81.2° (Epoch: 11 April)

Event Time Altitude Azimuth Distance (km) Brightness Sun altitude
Rises 23:28:04 0° 206° (SSW) 3,543 7.8 -4.5°
Reaches altitude 10° 23:30:51 10° 217° (SW) 2,600 7.3 -5.2°
Maximum altitude 23:35:55 29° 275° (W) 1,588 6.7 -6.5°
Drops below altitude 10° 23:40:56 10° 334° (NNW) 2,566 7.1 -7.7°
Sets 23:43:41 0° 345° (NNW) 3,489 7.6 -8.4°
